| time (UTC) | temp F | wind direction | speed MPH | gust MPH | rain 1hr in | rain 24hr in | rain mn in | humidity % | barometer mb |
| 20260509034442 | 58 | 0 | 0.0 | 3.0 | 0.00 | 0.00 | 0.00 | 52 | 1014.5 |
| 20260509033921 | 58 | 0 | 1.0 | 5.0 | 0.00 | 0.00 | 0.00 | 49 | 1014.4 |
| 20260509033359 | 59 | 0 | 1.0 | 5.0 | 0.00 | 0.00 | 0.00 | 48 | 1014.3 |
| 20260509032852 | 60 | 0 | 0.0 | 2.0 | 0.00 | 0.00 | 0.00 | 50 | 1014.3 |
| 20260509032339 | 60 | 0 | 0.0 | 0.0 | 0.00 | 0.00 | 0.00 | 50 | 1014.3 |
| 20260509031833 | 61 | 0 | 0.0 | 0.0 | 0.00 | 0.00 | 0.00 | 49 | 1014.4 |
| 20260509031547 | 61 | 0 | 0.0 | 0.0 | 0.00 | 0.00 | 0.00 | 46 | 1014.3 |
| 20260509031426 | 61 | 0 | 0.0 | 0.0 | 0.00 | 0.00 | 0.00 | 46 | 1014.3 |
| 20260509030754 | 62 | 0 | 0.0 | 0.0 | 0.00 | 0.00 | 0.00 | 45 | 1014.2 |
| 20260509030249 | 62 | 0 | 0.0 | 0.0 | 0.00 | 0.00 | 0.00 | 44 | 1014.3 |
| 20260509030222 | 62 | 0 | 0.0 | 0.0 | 0.00 | 0.00 | 0.00 | 44 | 1014.2 |
| 20260509025833 | 62 | 0 | 0.0 | 0.0 | 0.00 | 0.00 | 0.00 | 44 | 1014.2 |
| 20260509025208 | 63 | 0 | 0.0 | 0.0 | 0.00 | 0.00 | 0.00 | 42 | 1014.1 |
| 20260509024648 | 63 | 0 | 0.0 | 0.0 | 0.00 | 0.00 | 0.00 | 41 | 1013.8 |
| 20260509024127 | 64 | 0 | 0.0 | 0.0 | 0.00 | 0.00 | 0.00 | 41 | 1013.8 |
| 20260509023841 | 65 | 0 | 0.0 | 0.0 | 0.00 | 0.00 | 0.00 | 42 | 1013.8 |
| 20260509023710 | 65 | 0 | 0.0 | 0.0 | 0.00 | 0.00 | 0.00 | 42 | 1013.8 |
| 20260509023046 | 65 | 0 | 0.0 | 2.0 | 0.00 | 0.00 | 0.00 | 41 | 1013.8 |
| 20260509022743 | 66 | 0 | 0.0 | 2.0 | 0.00 | 0.00 | 0.00 | 39 | 1013.9 |
| 20260509022630 | 66 | 0 | 0.0 | 2.0 | 0.00 | 0.00 | 0.00 | 39 | 1013.9 |
| 20260509022016 | 66 | 0 | 0.0 | 0.0 | 0.00 | 0.00 | 0.00 | 38 | 1013.8 |
| 20260509021726 | 67 | 0 | 0.0 | 0.0 | 0.00 | 0.00 | 0.00 | 37 | 1013.7 |
| 20260509021604 | 67 | 0 | 0.0 | 0.0 | 0.00 | 0.00 | 0.00 | 37 | 1013.7 |
| 20260509021001 | 67 | 0 | 0.0 | 0.0 | 0.00 | 0.00 | 0.00 | 36 | 1013.7 |
| 20260509020825 | 67 | 0 | 0.0 | 0.0 | 0.00 | 0.00 | 0.00 | 35 | 1013.7 |
| 20260509020755 | 67 | 0 | 0.0 | 0.0 | 0.00 | 0.00 | 0.00 | 35 | 1013.7 |
| 20260509020249 | 68 | 0 | 0.0 | 0.0 | 0.00 | 0.00 | 0.00 | 35 | 1013.6 |
| 20260509015500 | 69 | 0 | 0.0 | 0.0 | 0.00 | 0.00 | 0.00 | 34 | 1013.6 |
| 20260509014930 | 69 | 0 | 0.0 | 0.0 | 0.00 | 0.00 | 0.00 | 34 | 1013.6 |
| 20260509014424 | 69 | 0 | 0.0 | 0.0 | 0.00 | 0.00 | 0.00 | 33 | 1013.5 |
| 20260509013918 | 70 | 0 | 0.0 | 0.0 | 0.00 | 0.00 | 0.00 | 33 | 1013.4 |
| 20260509013636 | 70 | 0 | 0.0 | 1.0 | 0.00 | 0.00 | 0.00 | 32 | 1013.4 |
| 20260509013523 | 70 | 0 | 0.0 | 1.0 | 0.00 | 0.00 | 0.00 | 32 | 1013.4 |
| 20260509012849 | 70 | 0 | 0.0 | 1.0 | 0.00 | 0.00 | 0.00 | 31 | 1013.4 |
| 20260509012556 | 71 | 0 | 0.0 | 1.0 | 0.00 | 0.00 | 0.00 | 30 | 1013.3 |
| 20260509012425 | 71 | 0 | 0.0 | 1.0 | 0.00 | 0.00 | 0.00 | 30 | 1013.3 |
| 20260509011827 | 71 | 0 | 0.0 | 2.0 | 0.00 | 0.00 | 0.00 | 30 | 1013.3 |
| 20260509011317 | 71 | 0 | 0.0 | 4.0 | 0.00 | 0.00 | 0.00 | 30 | 1013.3 |
| 20260509010823 | 72 | 0 | 0.0 | 4.0 | 0.00 | 0.00 | 0.00 | 30 | 1013.3 |
| 20260509010314 | 72 | 0 | 0.0 | 4.0 | 0.00 | 0.00 | 0.00 | 28 | 1013.5 |
| 20260509005814 | 73 | 0 | 0.0 | 4.0 | 0.00 | 0.00 | 0.00 | 28 | 1013.4 |
| 20260509005309 | 73 | 0 | 0.0 | 2.0 | 0.00 | 0.00 | 0.00 | 28 | 1013.4 |
| 20260509004743 | 73 | 0 | 1.0 | 5.0 | 0.00 | 0.00 | 0.00 | 28 | 1013.4 |
| 20260509004214 | 74 | 0 | 1.0 | 6.0 | 0.00 | 0.00 | 0.00 | 27 | 1013.3 |
| 20260509003649 | 74 | 0 | 2.0 | 6.0 | 0.00 | 0.00 | 0.00 | 27 | 1013.4 |
| 20260509003122 | 74 | 0 | 3.0 | 9.0 | 0.00 | 0.00 | 0.00 | 27 | 1013.4 |
| 20260509003108 | 75 | 0 | 3.0 | 9.0 | 0.00 | 0.00 | 0.00 | 27 | 1013.5 |
| 20260509002731 | 75 | 0 | 3.0 | 9.0 | 0.00 | 0.00 | 0.00 | 27 | 1013.5 |
| 20260509002050 | 75 | 0 | 4.0 | 9.0 | 0.00 | 0.00 | 0.00 | 25 | 1013.5 |
| 20260509001546 | 75 | 0 | 4.0 | 9.0 | 0.00 | 0.00 | 0.00 | 25 | 1013.4 |
| 20260509001022 | 76 | 0 | 2.0 | 8.0 | 0.00 | 0.00 | 0.00 | 25 | 1013.4 |
| 20260509000720 | 76 | 0 | 2.0 | 6.0 | 0.00 | 0.00 | 0.00 | 27 | 1013.4 |
| 20260509000556 | 76 | 0 | 2.0 | 6.0 | 0.00 | 0.00 | 0.00 | 27 | 1013.4 |
| 20260508235925 | 75 | 0 | 2.0 | 6.0 | 0.00 | 0.00 | 0.00 | 27 | 1013.5 |
| 20260508235359 | 75 | 0 | 2.0 | 8.0 | 0.00 | 0.00 | 0.00 | 27 | 1013.6 |
| 20260508234847 | 75 | 0 | 2.0 | 8.0 | 0.00 | 0.00 | 0.00 | 28 | 1013.5 |
| 20260508234338 | 75 | 0 | 2.0 | 8.0 | 0.00 | 0.00 | 0.00 | 27 | 1013.5 |
| 20260508234106 | 75 | 0 | 2.0 | 8.0 | 0.00 | 0.00 | 0.00 | 26 | 1013.5 |
| 20260508233942 | 75 | 0 | 2.0 | 8.0 | 0.00 | 0.00 | 0.00 | 26 | 1013.5 |
| 20260508233308 | 75 | 0 | 3.0 | 9.0 | 0.00 | 0.00 | 0.00 | 27 | 1013.5 |
| 20260508232739 | 75 | 0 | 4.0 | 9.0 | 0.00 | 0.00 | 0.00 | 27 | 1013.6 |
| 20260508232213 | 75 | 0 | 4.0 | 12.0 | 0.00 | 0.00 | 0.00 | 26 | 1013.6 |
| 20260508231931 | 75 | 0 | 5.0 | 12.0 | 0.00 | 0.00 | 0.00 | 25 | 1013.6 |
| 20260508231814 | 75 | 0 | 5.0 | 12.0 | 0.00 | 0.00 | 0.00 | 25 | 1013.6 |
| 20260508231144 | 76 | 0 | 6.0 | 14.0 | 0.00 | 0.00 | 0.00 | 26 | 1013.6 |
| 20260508230641 | 76 | 0 | 4.0 | 14.0 | 0.00 | 0.00 | 0.00 | 26 | 1013.6 |
| 20260508230138 | 77 | 0 | 2.0 | 8.0 | 0.00 | 0.00 | 0.00 | 25 | 1013.7 |
| 20260508225612 | 76 | 0 | 2.0 | 8.0 | 0.00 | 0.00 | 0.00 | 26 | 1013.6 |
| 20260508225111 | 76 | 0 | 3.0 | 10.0 | 0.00 | 0.00 | 0.00 | 27 | 1013.7 |
| 20260508224614 | 75 | 0 | 3.0 | 10.0 | 0.00 | 0.00 | 0.00 | 28 | 1013.6 |
| 20260508224110 | 75 | 0 | 3.0 | 10.0 | 0.00 | 0.00 | 0.00 | 28 | 1013.6 |
| 20260508223610 | 74 | 0 | 3.0 | 9.0 | 0.00 | 0.00 | 0.00 | 28 | 1013.6 |
| 20260508223041 | 74 | 0 | 3.0 | 9.0 | 0.00 | 0.00 | 0.00 | 27 | 1013.8 |
| 20260508222537 | 75 | 0 | 4.0 | 13.0 | 0.00 | 0.00 | 0.00 | 27 | 1013.7 |
| 20260508222012 | 74 | 0 | 4.0 | 13.0 | 0.00 | 0.00 | 0.00 | 28 | 1013.7 |
| 20260508221446 | 74 | 0 | 5.0 | 14.0 | 0.00 | 0.00 | 0.00 | 28 | 1013.6 |
| 20260508220941 | 75 | 0 | 5.0 | 14.0 | 0.00 | 0.00 | 0.00 | 26 | 1013.7 |
| 20260508220440 | 76 | 0 | 4.0 | 13.0 | 0.00 | 0.00 | 0.00 | 27 | 1013.6 |
| 20260508215938 | 75 | 0 | 4.0 | 13.0 | 0.00 | 0.00 | 0.00 | 27 | 1013.7 |
| 20260508215444 | 75 | 0 | 5.0 | 13.0 | 0.00 | 0.00 | 0.00 | 28 | 1013.6 |
| 20260508214937 | 75 | 0 | 5.0 | 12.0 | 0.00 | 0.00 | 0.00 | 26 | 1013.6 |
| 20260508214401 | 76 | 0 | 6.0 | 14.0 | 0.00 | 0.00 | 0.00 | 27 | 1013.7 |
| 20260508213857 | 76 | 0 | 6.0 | 13.0 | 0.00 | 0.00 | 0.00 | 25 | 1013.7 |
| 20260508213354 | 76 | 0 | 5.0 | 13.0 | 0.00 | 0.00 | 0.00 | 26 | 1013.8 |
| 20260508212827 | 76 | 0 | 3.0 | 13.0 | 0.00 | 0.00 | 0.00 | 26 | 1013.8 |
| 20260508212325 | 75 | 0 | 4.0 | 13.0 | 0.00 | 0.00 | 0.00 | 26 | 1013.9 |
| 20260508211819 | 75 | 0 | 6.0 | 17.0 | 0.00 | 0.00 | 0.00 | 27 | 1014.1 |
| 20260508211308 | 76 | 0 | 5.0 | 17.0 | 0.00 | 0.00 | 0.00 | 26 | 1014.1 |
| 20260508211135 | 76 | 0 | 4.0 | 11.0 | 0.00 | 0.00 | 0.00 | 27 | 1013.9 |
| 20260508211104 | 76 | 0 | 4.0 | 11.0 | 0.00 | 0.00 | 0.00 | 27 | 1013.9 |
| 20260508210244 | 76 | 0 | 4.0 | 14.0 | 0.00 | 0.00 | 0.00 | 27 | 1014.1 |
| 20260508205726 | 76 | 0 | 4.0 | 14.0 | 0.00 | 0.00 | 0.00 | 27 | 1014.2 |
| 20260508205221 | 75 | 0 | 4.0 | 13.0 | 0.00 | 0.00 | 0.00 | 29 | 1014.3 |
| 20260508204717 | 74 | 0 | 5.0 | 13.0 | 0.00 | 0.00 | 0.00 | 29 | 1014.4 |
| 20260508204211 | 74 | 0 | 6.0 | 17.0 | 0.00 | 0.00 | 0.00 | 27 | 1014.4 |
| 20260508203647 | 74 | 0 | 4.0 | 17.0 | 0.00 | 0.00 | 0.00 | 28 | 1014.4 |
| 20260508203406 | 75 | 0 | 3.0 | 12.0 | 0.00 | 0.00 | 0.00 | 29 | 1014.5 |
| 20260508203242 | 75 | 0 | 3.0 | 12.0 | 0.00 | 0.00 | 0.00 | 29 | 1014.5 |
| 20260508202635 | 75 | 0 | 5.0 | 12.0 | 0.00 | 0.00 | 0.00 | 29 | 1014.6 |
| 20260508202108 | 74 | 0 | 4.0 | 12.0 | 0.00 | 0.00 | 0.00 | 30 | 1014.5 |
| 20260508201605 | 74 | 0 | 3.0 | 12.0 | 0.00 | 0.00 | 0.00 | 32 | 1014.6 |
| 20260508201049 | 73 | 0 | 3.0 | 13.0 | 0.00 | 0.00 | 0.00 | 34 | 1014.6 |
| 20260508200536 | 73 | 0 | 4.0 | 13.0 | 0.00 | 0.00 | 0.00 | 32 | 1014.6 |
| 20260508200014 | 72 | 0 | 4.0 | 11.0 | 0.00 | 0.00 | 0.00 | 33 | 1014.7 |
| 20260508195514 | 72 | 0 | 5.0 | 12.0 | 0.00 | 0.00 | 0.00 | 34 | 1014.6 |
| 20260508195004 | 72 | 0 | 4.0 | 12.0 | 0.00 | 0.00 | 0.00 | 32 | 1014.7 |
| 20260508194459 | 73 | 0 | 4.0 | 11.0 | 0.00 | 0.00 | 0.00 | 32 | 1014.7 |
| 20260508193959 | 73 | 0 | 4.0 | 11.0 | 0.00 | 0.00 | 0.00 | 32 | 1014.7 |
| 20260508193439 | 73 | 0 | 3.0 | 9.0 | 0.00 | 0.00 | 0.00 | 33 | 1014.7 |
| 20260508192939 | 74 | 0 | 4.0 | 13.0 | 0.00 | 0.00 | 0.00 | 30 | 1014.7 |
| 20260508192914 | 74 | 0 | 3.0 | 13.0 | 0.00 | 0.00 | 0.00 | 30 | 1014.7 |
| 20260508192838 | 74 | 0 | 4.0 | 13.0 | 0.00 | 0.00 | 0.00 | 30 | 1014.7 |
| 20260508191914 | 75 | 0 | 5.0 | 14.0 | 0.00 | 0.00 | 0.00 | 31 | 1014.8 |
| 20260508191349 | 74 | 0 | 4.0 | 14.0 | 0.00 | 0.00 | 0.00 | 31 | 1014.8 |
| 20260508191057 | 74 | 0 | 4.0 | 11.0 | 0.00 | 0.00 | 0.00 | 31 | 1014.8 |
| 20260508190938 | 74 | 0 | 4.0 | 11.0 | 0.00 | 0.00 | 0.00 | 31 | 1014.8 |
| 20260508190331 | 74 | 0 | 5.0 | 15.0 | 0.00 | 0.00 | 0.00 | 29 | 1014.8 |
| 20260508185808 | 74 | 0 | 5.0 | 15.0 | 0.00 | 0.00 | 0.00 | 31 | 1014.8 |
| 20260508185246 | 73 | 0 | 5.0 | 15.0 | 0.00 | 0.00 | 0.00 | 33 | 1014.8 |
| 20260508184752 | 73 | 0 | 4.0 | 17.0 | 0.00 | 0.00 | 0.00 | 29 | 1014.8 |
| 20260508184247 | 74 | 0 | 3.0 | 17.0 | 0.00 | 0.00 | 0.00 | 30 | 1014.9 |
| 20260508183725 | 72 | 0 | 5.0 | 14.0 | 0.00 | 0.00 | 0.00 | 32 | 1014.8 |
| 20260508183159 | 72 | 0 | 5.0 | 14.0 | 0.00 | 0.00 | 0.00 | 30 | 1014.8 |
| 20260508182657 | 71 | 0 | 5.0 | 14.0 | 0.00 | 0.00 | 0.00 | 31 | 1014.9 |
| 20260508182639 | 71 | 0 | 6.0 | 13.0 | 0.00 | 0.00 | 0.00 | 31 | 1014.9 |
| 20260508182259 | 71 | 0 | 6.0 | 13.0 | 0.00 | 0.00 | 0.00 | 31 | 1014.9 |
| 20260508181654 | 71 | 0 | 6.0 | 15.0 | 0.00 | 0.00 | 0.00 | 31 | 1015.0 |
| 20260508181131 | 72 | 0 | 4.0 | 12.0 | 0.00 | 0.00 | 0.00 | 31 | 1015.0 |
| 20260508180608 | 72 | 0 | 4.0 | 10.0 | 0.00 | 0.00 | 0.00 | 33 | 1015.0 |
| 20260508180112 | 72 | 0 | 5.0 | 13.0 | 0.00 | 0.00 | 0.00 | 31 | 1015.0 |
| 20260508175809 | 72 | 0 | 4.0 | 13.0 | 0.00 | 0.00 | 0.00 | 31 | 1015.0 |
| 20260508175650 | 72 | 0 | 4.0 | 13.0 | 0.00 | 0.00 | 0.00 | 31 | 1015.0 |
| 20260508175044 | 72 | 0 | 4.0 | 16.0 | 0.00 | 0.00 | 0.00 | 32 | 1015.2 |
| 20260508174519 | 71 | 0 | 4.0 | 14.0 | 0.00 | 0.00 | 0.00 | 32 | 1015.2 |
| 20260508174223 | 71 | 0 | 5.0 | 14.0 | 0.00 | 0.00 | 0.00 | 33 | 1015.3 |
| 20260508174057 | 71 | 0 | 5.0 | 14.0 | 0.00 | 0.00 | 0.00 | 33 | 1015.3 |
| 20260508173454 | 70 | 0 | 4.0 | 12.0 | 0.00 | 0.00 | 0.00 | 34 | 1015.2 |
| 20260508172948 | 70 | 0 | 5.0 | 12.0 | 0.00 | 0.00 | 0.00 | 36 | 1015.2 |
| 20260508172423 | 70 | 0 | 5.0 | 14.0 | 0.00 | 0.00 | 0.00 | 35 | 1015.4 |
| 20260508171910 | 71 | 0 | 4.0 | 14.0 | 0.00 | 0.00 | 0.00 | 35 | 1015.4 |
| 20260508171410 | 70 | 0 | 4.0 | 11.0 | 0.00 | 0.00 | 0.00 | 37 | 1015.4 |
| 20260508170920 | 69 | 0 | 5.0 | 17.0 | 0.00 | 0.00 | 0.00 | 40 | 1015.4 |
| 20260508170350 | 69 | 0 | 5.0 | 17.0 | 0.00 | 0.00 | 0.00 | 38 | 1015.4 |
| 20260508165849 | 69 | 0 | 5.0 | 14.0 | 0.00 | 0.00 | 0.00 | 39 | 1015.5 |
| 20260508165605 | 69 | 0 | 5.0 | 14.0 | 0.00 | 0.00 | 0.00 | 36 | 1015.6 |
| 20260508165449 | 69 | 0 | 5.0 | 14.0 | 0.00 | 0.00 | 0.00 | 36 | 1015.6 |
| 20260508164821 | 69 | 0 | 5.0 | 20.0 | 0.00 | 0.00 | 0.00 | 38 | 1015.6 |
| 20260508164321 | 68 | 0 | 6.0 | 20.0 | 0.00 | 0.00 | 0.00 | 39 | 1015.6 |
| 20260508163749 | 67 | 0 | 5.0 | 14.0 | 0.00 | 0.00 | 0.00 | 38 | 1015.5 |
| 20260508163224 | 67 | 0 | 5.0 | 12.0 | 0.00 | 0.00 | 0.00 | 42 | 1015.6 |
| 20260508162709 | 66 | 0 | 5.0 | 15.0 | 0.00 | 0.00 | 0.00 | 41 | 1015.6 |
| 20260508162213 | 66 | 0 | 4.0 | 15.0 | 0.00 | 0.00 | 0.00 | 45 | 1015.6 |
| 20260508161710 | 65 | 0 | 5.0 | 16.0 | 0.00 | 0.00 | 0.00 | 45 | 1015.6 |
| 20260508161141 | 64 | 0 | 7.0 | 16.0 | 0.00 | 0.00 | 0.00 | 45 | 1015.7 |
| 20260508160618 | 63 | 0 | 6.0 | 14.0 | 0.00 | 0.00 | 0.00 | 48 | 1015.7 |
| 20260508160116 | 62 | 0 | 6.0 | 19.0 | 0.00 | 0.00 | 0.00 | 49 | 1015.8 |
| 20260508155820 | 62 | 0 | 6.0 | 19.0 | 0.00 | 0.00 | 0.00 | 51 | 1015.5 |
| 20260508155703 | 62 | 0 | 6.0 | 19.0 | 0.00 | 0.00 | 0.00 | 51 | 1015.5 |
| 20260508155055 | 62 | 0 | 6.0 | 20.0 | 0.00 | 0.00 | 0.00 | 52 | 1015.6 |
| 20260508154529 | 62 | 0 | 5.0 | 20.0 | 0.00 | 0.00 | 0.00 | 53 | 1015.6 |
| 20260508154233 | 61 | 0 | 6.0 | 18.0 | 0.00 | 0.00 | 0.00 | 53 | 1015.6 |
| 20260508154108 | 61 | 0 | 6.0 | 18.0 | 0.00 | 0.00 | 0.00 | 53 | 1015.6 |
| 20260508153504 | 61 | 0 | 6.0 | 18.0 | 0.00 | 0.00 | 0.00 | 55 | 1015.5 |
| 20260508153008 | 60 | 0 | 6.0 | 16.0 | 0.00 | 0.00 | 0.00 | 56 | 1015.4 |
| 20260508152452 | 60 | 0 | 5.0 | 16.0 | 0.00 | 0.00 | 0.00 | 58 | 1015.5 |
| 20260508151925 | 59 | 0 | 5.0 | 14.0 | 0.00 | 0.00 | 0.00 | 59 | 1015.4 |
| 20260508151422 | 59 | 0 | 5.0 | 16.0 | 0.00 | 0.00 | 0.00 | 61 | 1015.3 |
| 20260508151229 | 59 | 0 | 4.0 | 16.0 | 0.00 | 0.00 | 0.00 | 61 | 1015.2 |
| 20260508151157 | 59 | 0 | 4.0 | 16.0 | 0.00 | 0.00 | 0.00 | 61 | 1015.2 |
| 20260508150345 | 59 | 0 | 5.0 | 15.0 | 0.00 | 0.00 | 0.00 | 63 | 1015.2 |
| 20260508145816 | 58 | 0 | 5.0 | 15.0 | 0.00 | 0.00 | 0.00 | 63 | 1015.2 |
| 20260508145514 | 58 | 0 | 5.0 | 14.0 | 0.00 | 0.00 | 0.00 | 66 | 1015.3 |
| 20260508145356 | 58 | 0 | 5.0 | 14.0 | 0.00 | 0.00 | 0.00 | 66 | 1015.3 |
| 20260508144725 | 57 | 0 | 5.0 | 14.0 | 0.00 | 0.00 | 0.00 | 67 | 1015.2 |
| 20260508144443 | 56 | 0 | 4.0 | 11.0 | 0.00 | 0.00 | 0.00 | 69 | 1015.3 |
| 20260508144354 | 56 | 0 | 4.0 | 13.0 | 0.00 | 0.00 | 0.00 | 69 | 1015.2 |
| 20260508144326 | 56 | 0 | 4.0 | 11.0 | 0.00 | 0.00 | 0.00 | 69 | 1015.3 |
| 20260508144012 | 56 | 0 | 4.0 | 13.0 | 0.00 | 0.00 | 0.00 | 69 | 1015.2 |
| 20260508143150 | 56 | 0 | 5.0 | 13.0 | 0.00 | 0.00 | 0.00 | 68 | 1015.0 |
| 20260508142625 | 56 | 0 | 6.0 | 15.0 | 0.00 | 0.00 | 0.00 | 69 | 1015.0 |
| 20260508142133 | 56 | 0 | 5.0 | 14.0 | 0.00 | 0.00 | 0.00 | 69 | 1014.9 |
| 20260508142122 | 56 | 0 | 6.0 | 15.0 | 0.00 | 0.00 | 0.00 | 68 | 1015.0 |
| 20260508142044 | 56 | 0 | 5.0 | 14.0 | 0.00 | 0.00 | 0.00 | 69 | 1014.9 |
| 20260508141127 | 56 | 0 | 6.0 | 14.0 | 0.00 | 0.00 | 0.00 | 69 | 1014.9 |
| 20260508140612 | 56 | 0 | 7.0 | 14.0 | 0.00 | 0.00 | 0.00 | 70 | 1015.0 |
| 20260508140111 | 56 | 0 | 6.0 | 14.0 | 0.00 | 0.00 | 0.00 | 71 | 1015.0 |
| 20260508135554 | 55 | 0 | 5.0 | 15.0 | 0.00 | 0.00 | 0.00 | 73 | 1015.0 |
| 20260508135349 | 55 | 0 | 6.0 | 15.0 | 0.00 | 0.00 | 0.00 | 73 | 1014.8 |
| 20260508134752 | 55 | 0 | 7.0 | 14.0 | 0.00 | 0.00 | 0.00 | 74 | 1014.9 |
| 20260508134635 | 55 | 0 | 7.0 | 14.0 | 0.00 | 0.00 | 0.00 | 74 | 1014.9 |
| 20260508134030 | 55 | 0 | 6.0 | 14.0 | 0.00 | 0.00 | 0.00 | 75 | 1014.9 |
| 20260508133505 | 55 | 0 | 6.0 | 13.0 | 0.00 | 0.00 | 0.00 | 76 | 1014.8 |
| 20260508132955 | 55 | 0 | 6.0 | 16.0 | 0.00 | 0.00 | 0.00 | 76 | 1014.7 |
| 20260508132452 | 54 | 0 | 7.0 | 16.0 | 0.00 | 0.00 | 0.00 | 77 | 1014.6 |
| 20260508131937 | 54 | 0 | 7.0 | 15.0 | 0.00 | 0.00 | 0.00 | 78 | 1014.7 |
| 20260508131446 | 53 | 0 | 6.0 | 16.0 | 0.00 | 0.00 | 0.00 | 78 | 1014.5 |
| 20260508130920 | 53 | 0 | 5.0 | 16.0 | 0.00 | 0.00 | 0.00 | 78 | 1014.5 |
| 20260508130627 | 53 | 0 | 6.0 | 14.0 | 0.00 | 0.00 | 0.00 | 78 | 1014.4 |
| 20260508130509 | 53 | 0 | 6.0 | 14.0 | 0.00 | 0.00 | 0.00 | 78 | 1014.4 |
| 20260508125906 | 53 | 0 | 5.0 | 11.0 | 0.00 | 0.00 | 0.00 | 79 | 1014.4 |
| 20260508125355 | 53 | 0 | 5.0 | 10.0 | 0.00 | 0.00 | 0.00 | 79 | 1014.3 |
| 20260508125149 | 52 | 0 | 5.0 | 10.0 | 0.00 | 0.00 | 0.00 | 81 | 1014.3 |
| 20260508124549 | 52 | 0 | 4.0 | 8.0 | 0.00 | 0.00 | 0.00 | 82 | 1014.2 |
| 20260508124429 | 52 | 0 | 4.0 | 8.0 | 0.00 | 0.00 | 0.00 | 82 | 1014.2 |
| 20260508123828 | 51 | 0 | 4.0 | 9.0 | 0.00 | 0.00 | 0.00 | 83 | 1014.2 |
| 20260508123317 | 51 | 0 | 4.0 | 9.0 | 0.00 | 0.00 | 0.00 | 84 | 1013.9 |
| 20260508122751 | 51 | 0 | 4.0 | 10.0 | 0.00 | 0.00 | 0.00 | 84 | 1013.8 |
| 20260508122516 | 50 | 0 | 3.0 | 10.0 | 0.00 | 0.00 | 0.00 | 84 | 1013.8 |
| 20260508122353 | 50 | 0 | 3.0 | 10.0 | 0.00 | 0.00 | 0.00 | 84 | 1013.8 |
| 20260508121746 | 50 | 0 | 3.0 | 6.0 | 0.00 | 0.00 | 0.00 | 83 | 1013.5 |
| 20260508121444 | 50 | 0 | 3.0 | 6.0 | 0.00 | 0.00 | 0.00 | 83 | 1013.4 |
| 20260508121323 | 50 | 0 | 3.0 | 6.0 | 0.00 | 0.00 | 0.00 | 83 | 1013.4 |
| 20260508120935 | 50 | 0 | 3.0 | 6.0 | 0.00 | 0.00 | 0.00 | 82 | 1013.3 |
| 20260508120820 | 50 | 0 | 3.0 | 6.0 | 0.00 | 0.00 | 0.00 | 82 | 1013.3 |
| 20260508120149 | 50 | 0 | 3.0 | 6.0 | 0.00 | 0.00 | 0.00 | 82 | 1013.2 |
| 20260508115645 | 50 | 0 | 3.0 | 8.0 | 0.00 | 0.00 | 0.00 | 81 | 1013.2 |
| 20260508115141 | 50 | 0 | 3.0 | 8.0 | 0.00 | 0.00 | 0.00 | 81 | 1013.1 |
| 20260508114613 | 51 | 0 | 2.0 | 4.0 | 0.00 | 0.00 | 0.00 | 79 | 1013.1 |
| 20260508114049 | 51 | 0 | 2.0 | 5.0 | 0.00 | 0.00 | 0.00 | 79 | 1013.1 |
| 20260508113548 | 51 | 0 | 2.0 | 5.0 | 0.00 | 0.00 | 0.00 | 78 | 1013.0 |
| 20260508113043 | 52 | 0 | 2.0 | 4.0 | 0.00 | 0.00 | 0.00 | 78 | 1013.1 |
| 20260508112542 | 52 | 0 | 3.0 | 6.0 | 0.00 | 0.00 | 0.00 | 77 | 1013.1 |
| 20260508112016 | 53 | 0 | 3.0 | 6.0 | 0.00 | 0.00 | 0.00 | 76 | 1013.1 |
| 20260508111516 | 53 | 0 | 4.0 | 8.0 | 0.00 | 0.00 | 0.00 | 76 | 1013.1 |
| 20260508111015 | 53 | 0 | 4.0 | 9.0 | 0.00 | 0.00 | 0.00 | 75 | 1013.1 |
| 20260508110503 | 54 | 0 | 3.0 | 9.0 | 0.00 | 0.00 | 0.00 | 74 | 1013.2 |
| 20260508105943 | 54 | 0 | 3.0 | 8.0 | 0.00 | 0.00 | 0.00 | 73 | 1013.1 |
| 20260508105444 | 55 | 0 | 3.0 | 8.0 | 0.00 | 0.00 | 0.00 | 73 | 1013.0 |
| 20260508105148 | 55 | 0 | 3.0 | 8.0 | 0.00 | 0.00 | 0.00 | 72 | 1013.0 |
| 20260508105030 | 55 | 0 | 3.0 | 8.0 | 0.00 | 0.00 | 0.00 | 72 | 1013.0 |
| 20260508104420 | 55 | 0 | 4.0 | 12.0 | 0.00 | 0.00 | 0.00 | 72 | 1013.0 |
| 20260508104145 | 56 | 0 | 4.0 | 12.0 | 0.00 | 0.00 | 0.00 | 71 | 1013.0 |
| 20260508104024 | 56 | 0 | 4.0 | 12.0 | 0.00 | 0.00 | 0.00 | 71 | 1013.0 |
| 20260508103359 | 56 | 0 | 4.0 | 10.0 | 0.00 | 0.00 | 0.00 | 71 | 1013.0 |
| 20260508103109 | 56 | 0 | 4.0 | 10.0 | 0.00 | 0.00 | 0.00 | 70 | 1013.1 |
| 20260508102941 | 56 | 0 | 4.0 | 10.0 | 0.00 | 0.00 | 0.00 | 70 | 1013.1 |
| 20260508102336 | 56 | 0 | 5.0 | 10.0 | 0.00 | 0.00 | 0.00 | 70 | 1013.2 |
| 20260508101821 | 57 | 0 | 5.0 | 10.0 | 0.00 | 0.00 | 0.00 | 69 | 1013.2 |
| 20260508101323 | 57 | 0 | 5.0 | 13.0 | 0.00 | 0.00 | 0.00 | 69 | 1013.1 |
| 20260508100759 | 57 | 0 | 6.0 | 13.0 | 0.00 | 0.00 | 0.00 | 68 | 1013.1 |
| 20260508100246 | 57 | 0 | 6.0 | 13.0 | 0.00 | 0.00 | 0.00 | 68 | 1013.1 |
| 20260508095745 | 57 | 0 | 6.0 | 13.0 | 0.00 | 0.00 | 0.00 | 68 | 1013.2 |
| 20260508095242 | 57 | 0 | 5.0 | 12.0 | 0.00 | 0.00 | 0.00 | 67 | 1013.2 |
| 20260508094719 | 57 | 0 | 5.0 | 10.0 | 0.00 | 0.00 | 0.00 | 67 | 1013.2 |
| 20260508094201 | 57 | 0 | 5.0 | 10.0 | 0.00 | 0.00 | 0.00 | 67 | 1013.2 |
| 20260508093658 | 57 | 0 | 5.0 | 10.0 | 0.00 | 0.00 | 0.00 | 67 | 1013.2 |
| 20260508093157 | 57 | 0 | 5.0 | 9.0 | 0.00 | 0.00 | 0.00 | 68 | 1013.2 |
| 20260508092657 | 56 | 0 | 5.0 | 9.0 | 0.00 | 0.00 | 0.00 | 69 | 1013.4 |
| 20260508092139 | 56 | 0 | 5.0 | 9.0 | 0.00 | 0.00 | 0.00 | 69 | 1013.4 |
| 20260508091910 | 56 | 0 | 5.0 | 11.0 | 0.00 | 0.00 | 0.00 | 69 | 1013.5 |
| 20260508091744 | 56 | 0 | 5.0 | 11.0 | 0.00 | 0.00 | 0.00 | 69 | 1013.5 |
| 20260508091116 | 56 | 0 | 5.0 | 11.0 | 0.00 | 0.00 | 0.00 | 69 | 1013.5 |
| 20260508090614 | 56 | 0 | 5.0 | 12.0 | 0.00 | 0.00 | 0.00 | 69 | 1013.7 |
| 20260508090425 | 56 | 0 | 5.0 | 12.0 | 0.00 | 0.00 | 0.00 | 69 | 1013.8 |
| 20260508085612 | 56 | 0 | 6.0 | 12.0 | 0.00 | 0.00 | 0.00 | 69 | 1013.9 |
| 20260508085108 | 57 | 0 | 6.0 | 12.0 | 0.00 | 0.00 | 0.00 | 70 | 1013.8 |
| 20260508084802 | 57 | 0 | 5.0 | 11.0 | 0.00 | 0.00 | 0.00 | 69 | 1014.1 |
| 20260508084646 | 57 | 0 | 5.0 | 11.0 | 0.00 | 0.00 | 0.00 | 69 | 1014.1 |
| 20260508084042 | 57 | 0 | 5.0 | 10.0 | 0.00 | 0.00 | 0.00 | 68 | 1013.9 |
| 20260508083536 | 58 | 0 | 5.0 | 11.0 | 0.00 | 0.00 | 0.00 | 67 | 1014.2 |
| 20260508083014 | 58 | 0 | 6.0 | 11.0 | 0.00 | 0.00 | 0.00 | 66 | 1014.1 |
| 20260508082510 | 58 | 0 | 6.0 | 14.0 | 0.00 | 0.00 | 0.00 | 65 | 1014.2 |
| 20260508082001 | 58 | 0 | 6.0 | 14.0 | 0.00 | 0.00 | 0.00 | 64 | 1014.2 |
| 20260508081507 | 59 | 0 | 6.0 | 13.0 | 0.00 | 0.00 | 0.00 | 63 | 1014.2 |
| 20260508081002 | 59 | 0 | 6.0 | 13.0 | 0.00 | 0.00 | 0.00 | 62 | 1014.2 |
| 20260508080459 | 59 | 0 | 6.0 | 12.0 | 0.00 | 0.00 | 0.00 | 61 | 1014.2 |
| 20260508075932 | 59 | 0 | 5.0 | 14.0 | 0.00 | 0.00 | 0.00 | 61 | 1014.2 |
| 20260508075430 | 59 | 0 | 7.0 | 14.0 | 0.00 | 0.00 | 0.00 | 61 | 1014.1 |
| 20260508074930 | 59 | 0 | 8.0 | 18.0 | 0.00 | 0.00 | 0.00 | 61 | 1014.3 |
| 20260508074359 | 59 | 0 | 7.0 | 18.0 | 0.00 | 0.00 | 0.00 | 59 | 1014.2 |
| 20260508073858 | 59 | 0 | 6.0 | 13.0 | 0.00 | 0.00 | 0.00 | 59 | 1014.2 |
| 20260508073359 | 59 | 0 | 6.0 | 11.0 | 0.00 | 0.00 | 0.00 | 59 | 1014.1 |
| 20260508072834 | 59 | 0 | 5.0 | 13.0 | 0.00 | 0.00 | 0.00 | 60 | 1014.1 |
| 20260508072330 | 58 | 0 | 5.0 | 13.0 | 0.00 | 0.00 | 0.00 | 60 | 1013.9 |
| 20260508071803 | 58 | 0 | 6.0 | 19.0 | 0.00 | 0.00 | 0.00 | 60 | 1013.8 |
| 20260508071235 | 58 | 0 | 6.0 | 19.0 | 0.00 | 0.00 | 0.00 | 62 | 1013.8 |
| 20260508070735 | 57 | 0 | 5.0 | 10.0 | 0.00 | 0.00 | 0.00 | 63 | 1013.8 |
| 20260508070228 | 57 | 0 | 5.0 | 12.0 | 0.00 | 0.00 | 0.00 | 64 | 1013.8 |
| 20260508065730 | 56 | 0 | 4.0 | 12.0 | 0.00 | 0.00 | 0.00 | 66 | 1014.1 |
| 20260508065213 | 56 | 0 | 3.0 | 6.0 | 0.00 | 0.00 | 0.00 | 66 | 1013.8 |
| 20260508064704 | 56 | 0 | 3.0 | 6.0 | 0.00 | 0.00 | 0.00 | 66 | 1013.7 |
| 20260508064201 | 57 | 0 | 3.0 | 6.0 | 0.00 | 0.00 | 0.00 | 66 | 1013.8 |
| 20260508063642 | 57 | 0 | 3.0 | 6.0 | 0.00 | 0.00 | 0.00 | 64 | 1013.7 |
| 20260508063406 | 57 | 0 | 2.0 | 6.0 | 0.00 | 0.00 | 0.00 | 63 | 1013.6 |
| 20260508063248 | 57 | 0 | 2.0 | 6.0 | 0.00 | 0.00 | 0.00 | 63 | 1013.6 |
| 20260508062850 | 57 | 0 | 2.0 | 5.0 | 0.00 | 0.00 | 0.00 | 62 | 1013.5 |
| 20260508062722 | 57 | 0 | 2.0 | 5.0 | 0.00 | 0.00 | 0.00 | 62 | 1013.5 |
| 20260508062114 | 58 | 0 | 2.0 | 5.0 | 0.00 | 0.00 | 0.00 | 61 | 1013.3 |
| 20260508061546 | 57 | 0 | 2.0 | 5.0 | 0.00 | 0.00 | 0.00 | 61 | 1013.3 |
| 20260508061045 | 57 | 0 | 2.0 | 5.0 | 0.00 | 0.00 | 0.00 | 61 | 1013.3 |
| 20260508060540 | 57 | 0 | 2.0 | 3.0 | 0.00 | 0.00 | 0.00 | 61 | 1013.3 |
| 20260508060036 | 57 | 0 | 2.0 | 4.0 | 0.00 | 0.00 | 0.00 | 61 | 1013.4 |
| 20260508055514 | 57 | 0 | 1.0 | 4.0 | 0.00 | 0.00 | 0.00 | 61 | 1013.5 |
| 20260508055010 | 57 | 0 | 1.0 | 3.0 | 0.00 | 0.00 | 0.00 | 60 | 1013.5 |
| 20260508054709 | 57 | 0 | 2.0 | 4.0 | 0.00 | 0.00 | 0.00 | 60 | 1013.6 |
| 20260508054555 | 57 | 0 | 2.0 | 4.0 | 0.00 | 0.00 | 0.00 | 60 | 1013.6 |
| 20260508053940 | 57 | 0 | 1.0 | 4.0 | 0.00 | 0.00 | 0.00 | 61 | 1013.6 |
| 20260508053419 | 57 | 0 | 1.0 | 2.0 | 0.00 | 0.00 | 0.00 | 61 | 1013.7 |
| 20260508052907 | 56 | 0 | 1.0 | 2.0 | 0.00 | 0.00 | 0.00 | 61 | 1013.6 |
| 20260508052409 | 56 | 0 | 1.0 | 2.0 | 0.00 | 0.00 | 0.00 | 61 | 1013.5 |
| 20260508052235 | 55 | 0 | 1.0 | 2.0 | 0.00 | 0.00 | 0.00 | 62 | 1013.5 |
| 20260508052156 | 55 | 0 | 1.0 | 2.0 | 0.00 | 0.00 | 0.00 | 62 | 1013.5 |
| 20260508051400 | 55 | 0 | 0.0 | 2.0 | 0.00 | 0.00 | 0.00 | 61 | 1013.4 |
| 20260508051048 | 55 | 0 | 1.0 | 2.0 | 0.00 | 0.00 | 0.00 | 62 | 1013.5 |
| 20260508050934 | 55 | 0 | 1.0 | 2.0 | 0.00 | 0.00 | 0.00 | 62 | 1013.5 |
| 20260508050330 | 55 | 0 | 1.0 | 2.0 | 0.00 | 0.00 | 0.00 | 63 | 1013.5 |
| 20260508045807 | 55 | 0 | 1.0 | 3.0 | 0.00 | 0.00 | 0.00 | 63 | 1013.6 |
| 20260508045306 | 55 | 0 | 1.0 | 3.0 | 0.00 | 0.00 | 0.00 | 63 | 1013.7 |
| 20260508044736 | 55 | 0 | 1.0 | 3.0 | 0.00 | 0.00 | 0.00 | 63 | 1013.7 |
| 20260508044230 | 55 | 0 | 1.0 | 3.0 | 0.00 | 0.00 | 0.00 | 63 | 1013.7 |
| 20260508043727 | 55 | 0 | 1.0 | 4.0 | 0.00 | 0.00 | 0.00 | 63 | 1013.8 |
| 20260508043202 | 55 | 0 | 2.0 | 6.0 | 0.00 | 0.00 | 0.00 | 63 | 1013.8 |
| 20260508042634 | 56 | 0 | 1.0 | 5.0 | 0.00 | 0.00 | 0.00 | 62 | 1013.7 |
| 20260508042131 | 57 | 0 | 0.0 | 1.0 | 0.00 | 0.00 | 0.00 | 61 | 1013.6 |
| 20260508041606 | 57 | 0 | 0.0 | 1.0 | 0.00 | 0.00 | 0.00 | 60 | 1013.5 |
| 20260508041037 | 57 | 0 | 0.0 | 1.0 | 0.00 | 0.00 | 0.00 | 58 | 1013.4 |
| 20260508040523 | 57 | 0 | 0.0 | 0.0 | 0.00 | 0.00 | 0.00 | 58 | 1013.3 |
| 20260508040021 | 58 | 0 | 0.0 | 0.0 | 0.00 | 0.00 | 0.00 | 56 | 1013.2 |
| 20260508035745 | 58 | 0 | 0.0 | 0.0 | 0.00 | 0.00 | 0.00 | 57 | 1013.3 |
| 20260508035623 | 58 | 0 | 0.0 | 0.0 | 0.00 | 0.00 | 0.00 | 57 | 1013.3 |
| 20260508035019 | 58 | 0 | 0.0 | 0.0 | 0.00 | 0.00 | 0.00 | 55 | 1013.4 |